Location: Unspecified
(0.0000°N, 0.0000°E)
Time: 07:30:04
(UTC+00:00)

ISS - Pass Details

Date: 21 April 2017
Orbit: 401 x 409 km, 51.6° (Epoch: 29 April)

Event Time Altitude Azimuth Distance (km) Brightness Sun altitude
Rises 19:02:30 0° 330° (NNW) 2,303 0.7 -15.6°
Reaches altitude 10° 19:04:35 10° 333° (NNW) 1,449 -0.5 -16.1°
Maximum altitude 19:07:48 61° 55° (NE) 460 -3.8 -16.9°
Enters shadow 19:08:24 49° 105° (ESE) 527 -3.7 -17.0°
